Weather History for Marion Regional, IL

Change the Weather History Date:

Sunday, December 9, 2012

  Actual Average Record
Temperature  
Mean Temperature 54 °F -  
Max Temperature 62 °F 45 °F 69 °F (1991)
Min Temperature 46 °F 27 °F 6 °F (1989)
Degree Days  
Heating Degree Days 11    
Growing Degree Days 4 (Base 50)    
Moisture  
Dew Point 50 °F    
Average Humidity 92    
Maximum Humidity 100    
Minimum Humidity 87    
Precipitation  
Precipitation 0.01 in - - ()
Sea Level Pressure  
Sea Level Pressure 29.85 in    
Wind  
Wind Speed 6 mph (NNE)    
Max Wind Speed 12 mph    
Max Gust Speed 18 mph    
Visibility 6 miles    
Events Rain , Thunderstorm    
Averages and records for this station are not official NWS values.
T = Trace of Precipitation, MM = Missing Value Source: NWS Daily Summary

Daily Weather History Graph

Daily Weather History Graph

Search for Another Location

Airport:

Trip Planner

Search our weather history database for the weather conditions in past years. The results will help you decide how hot, cold, wet, or windy it might be!

Date:

Astronomy

Dec. 09, 2012 Rise Set
Actual Time 7:00 AM CST 4:37 PM CST
Civil Twilight 6:30 AM CST 5:06 PM CST
Nautical Twilight 5:58 AM CST 5:39 PM CST
Astronomical Twilight 5:26 AM CST 6:11 PM CST
Moon 2:36 AM CST (12/9) 1:41 PM CST (12/9)
Length of Visible Light 10h 35m
Length of Day
9h 37m
Waning Crescent, 18% of the Moon is Illuminated
Dec 9
Waning Crescent
Dec 13
New
Dec 19
First Quarter
Dec 28
Full
Jan 4
Last Quarter

Hourly Weather History & Observations

Time (CST) Temp. Windchill Dew Point Humidity Pressure Visibility Wind Dir Wind Speed Gust Speed Precip Events Conditions
12:15 AM 50.0 °F - 46.4 °F 87% 29.96 in 7.0 mi East 5.8 mph - N/A   Overcast
12:35 AM 50.0 °F - 46.4 °F 87% 29.95 in 7.0 mi ENE 3.5 mph - N/A   Overcast
12:55 AM 50.0 °F - 46.4 °F 87% 29.94 in 7.0 mi East 5.8 mph - N/A   Overcast
1:15 AM 50.0 °F - 46.4 °F 87% 29.93 in 7.0 mi East 5.8 mph - N/A   Overcast
1:35 AM 50.0 °F - 46.4 °F 87% 29.93 in 7.0 mi East 5.8 mph - N/A   Overcast
1:55 AM 50.0 °F - 46.4 °F 87% 29.92 in 7.0 mi East 5.8 mph - N/A   Overcast
2:15 AM 50.0 °F - 46.4 °F 87% 29.92 in 7.0 mi ENE 5.8 mph - N/A   Overcast
2:35 AM 50.0 °F - 46.4 °F 87% 29.92 in 7.0 mi East 3.5 mph - N/A   Overcast
2:55 AM 50.0 °F - 46.4 °F 87% 29.90 in 7.0 mi East 5.8 mph - N/A   Unknown
3:15 AM 50.0 °F - 46.4 °F 87% 29.89 in 5.0 mi East 8.1 mph - N/A   Overcast
3:35 AM 50.0 °F - 46.4 °F 87% 29.88 in 5.0 mi ESE 10.4 mph - N/A   Overcast
3:55 AM 50.0 °F - 46.4 °F 87% 29.87 in 5.0 mi East 5.8 mph - N/A   Overcast
4:15 AM 50.0 °F - 46.4 °F 87% 29.87 in 5.0 mi East 5.8 mph - N/A   Overcast
4:35 AM 50.0 °F - 46.4 °F 87% 29.86 in 5.0 mi East 5.8 mph - N/A   Overcast
4:55 AM 50.0 °F - 46.4 °F 87% 29.86 in 5.0 mi ESE 5.8 mph - N/A   Overcast
5:15 AM 50.0 °F - 48.2 °F 94% 29.86 in 5.0 mi SE 3.5 mph - N/A   Overcast
5:35 AM 50.0 °F - 48.2 °F 94% 29.86 in 5.0 mi SE 5.8 mph - N/A Rain Light Rain
6:55 AM 51.8 °F - 51.8 °F 100% 29.85 in 3.0 mi SE 5.8 mph - N/A   Mostly Cloudy
7:55 AM 53.6 °F - 53.6 °F 100% 29.85 in 3.0 mi South 5.8 mph - N/A   Overcast
8:55 AM 55.4 °F - 55.4 °F 100% 29.86 in 3.0 mi South 5.8 mph - N/A   Overcast
9:55 AM 55.4 °F - 55.4 °F 100% 29.86 in 3.0 mi South 5.8 mph - N/A   Overcast
10:55 AM 57.2 °F - 57.2 °F 100% 29.84 in 5.0 mi South 5.8 mph - N/A   Overcast
11:55 AM 60.8 °F - 59.0 °F 94% 29.80 in 7.0 mi South 9.2 mph - N/A   Mostly Cloudy
12:34 PM 60.8 °F - 59.0 °F 94% 29.78 in 1.2 mi SSE 9.2 mph - N/A Rain , Thunderstorm Thunderstorms and Rain
12:55 PM 62.6 °F - 60.8 °F 94% 29.78 in 10.0 mi South 9.2 mph - N/A   Overcast
1:55 PM 62.6 °F - 60.8 °F 94% 29.78 in 2.0 mi West 10.4 mph - N/A Rain , Thunderstorm Heavy Thunderstorms and Rain
2:10 PM 60.8 °F - 60.8 °F 100% 29.77 in 4.0 mi SSW 6.9 mph - N/A Rain , Thunderstorm Thunderstorms and Rain
2:55 PM 60.8 °F - 60.8 °F 100% 29.75 in 7.0 mi SSW 5.8 mph - N/A Rain Light Rain
3:55 PM 60.8 °F - 60.8 °F 100% 29.74 in 5.0 mi NW 4.6 mph - N/A Rain , Thunderstorm Thunderstorms and Rain
4:55 PM 59.0 °F - 59.0 °F 100% 29.74 in 2.5 mi North 9.2 mph - N/A Rain , Thunderstorm Heavy Thunderstorms and Rain
5:45 PM 55.4 °F - 55.4 °F 100% 29.78 in 7.0 mi NW 9.2 mph - N/A Rain Rain
6:55 PM 51.8 °F - 50.0 °F 94% 29.81 in 5.0 mi NNW 11.5 mph 18.4 mph 0.01 in   Overcast
7:15 PM 51.8 °F - 50.0 °F 94% 29.81 in 7.0 mi NW 4.6 mph - N/A   Overcast
7:35 PM 51.8 °F - 50.0 °F 94% 29.81 in 7.0 mi NNW 4.6 mph - N/A   Overcast
7:55 PM 50.0 °F - 50.0 °F 100% 29.80 in 7.0 mi NNW 3.5 mph - N/A   Overcast
8:15 PM 50.0 °F - 50.0 °F 100% 29.82 in 7.0 mi WNW 3.5 mph - N/A   Overcast
8:35 PM 50.0 °F - 48.2 °F 94% 29.82 in 7.0 mi NNW 6.9 mph - N/A   Overcast
8:55 PM 50.0 °F - 48.2 °F 94% 29.82 in 7.0 mi NW 8.1 mph - N/A   Overcast
9:15 PM 50.0 °F - 46.4 °F 87% 29.83 in 7.0 mi NW 9.2 mph - N/A   Overcast
9:35 PM 50.0 °F - 46.4 °F 87% 29.84 in 7.0 mi NW 6.9 mph - N/A   Overcast
9:55 PM 46.4 °F 41.5 °F 44.6 °F 93% 29.85 in 5.0 mi NW 10.4 mph 18.4 mph N/A   Overcast
10:15 PM 46.4 °F 41.9 °F 44.6 °F 93% 29.86 in 7.0 mi NNW 9.2 mph - N/A   Overcast
10:35 PM 46.4 °F 41.9 °F 44.6 °F 93% 29.85 in 7.0 mi NW 9.2 mph 16.1 mph N/A   Overcast
10:55 PM 46.4 °F 42.9 °F 44.6 °F 93% 29.86 in 7.0 mi NW 6.9 mph - N/A   Overcast
11:15 PM 46.4 °F 41.9 °F 42.8 °F 87% 29.88 in 7.0 mi NW 9.2 mph - N/A   Overcast
11:35 PM 46.4 °F 41.5 °F 42.8 °F 87% 29.86 in 10.0 mi NNW 10.4 mph - N/A   Overcast
11:55 PM 46.4 °F 41.5 °F 42.8 °F 87% 29.86 in 10.0 mi NW 10.4 mph - N/A   Overcast